Flag for New Zealand Weather past 2 weeks in Chatham Islands, Chatham Islands, New Zealand

Now
48 °F

Cool.


Feels Like: 46 °F
Forecast: 46 / 50 °F
Wind: 5 mph from South

Location: Wellington Airport

Current Time: Jul 30, 2015 at 5:43:23 PM

Latest Report: Jul 30, 2015 at 4:15 PM


Visibility: N/A

Pressure: 30.21 "Hg

Humidity: 58%

Dew point: 34 °F

Location of Chatham IslandsLocation

Historic Weather in Chatham Islands — Graph

°F

Chatham Islands temperature yesterday

Maximum temperature yesterday: 54 °F (at 1:45 PM)
Minimum temperature yesterday: 46 °F (at 2:45 AM)
Average temperature yesterday: 50 °F

Past Weeks' High & Low Weather Summary

 TemperatureHumidityPressure
High59 °F (Jul 16, 12:45 PM)100% (Jul 16, 3:45 AM)30.57 "Hg (Jul 16, 3:45 AM)
Low37 °F (Jul 25, 6:15 AM)41% (Jul 21, 2:45 PM)29.18 "Hg (Jul 18, 5:45 PM)
Average51 °F77%30.04 "Hg
* Reported Jul 15 3:45 PM — Jul 30 4:15 PM, Chatham Islands, Weather by CustomWeather, © 2015

Note: Actual official high and low records may vary slightly from our data, if they occured in-between our weather recording intervals... More about our weather records

Advertising

Chatham Islands weather history for previous 24 hours

 ConditionsComfort  
Time TempWeatherWind HumidityBarometerVisibility
4:15 PM
Thu, Jul 30
48 °FCool.5 mph58%30.21 "HgN/A
3:45 PM50 °FCool.5 mph58%30.21 "HgN/A
3:15 PM50 °FCool.5 mph58%30.21 "HgN/A
2:45 PM48 °FCool.7 mph62%30.21 "HgN/A
2:15 PM50 °FCool.10 mph62%30.24 "HgN/A
1:45 PM50 °FCool.12 mph62%30.24 "HgN/A
1:15 PM48 °FCool.12 mph62%30.24 "HgN/A
12:45 PM50 °FPassing clouds.13 mph62%30.27 "HgN/A
12:15 PM48 °FPassing clouds.15 mph62%30.27 "HgN/A
11:45 AM48 °FScattered clouds.16 mph62%30.27 "HgN/A
11:15 AM48 °FPartly sunny.20 mph62%30.27 "HgN/A
10:15 AM48 °FCool.20 mph62%30.27 "HgN/A
9:45 AM46 °FPassing clouds.21 mph71%30.24 "HgN/A
9:15 AM48 °FPartly sunny.22 mph62%30.24 "HgN/A
8:45 AM48 °FScattered clouds.22 mph66%30.24 "Hg6 mi
8:15 AM46 °FScattered clouds.18 mph71%30.21 "Hg6 mi
7:45 AM46 °FBroken clouds.23 mph71%30.21 "HgN/A
7:15 AM46 °FSprinkles. Passing clouds.22 mph71%30.21 "HgN/A
6:45 AM46 °FPartly cloudy.20 mph71%30.21 "HgN/A
6:15 AM46 °FPartly cloudy.23 mph71%30.21 "Hg6 mi
5:45 AM45 °FSprinkles. Partly cloudy.25 mph81%30.21 "HgN/A
5:15 AM46 °FPassing clouds.26 mph66%30.18 "Hg5 mi
4:45 AM46 °FMostly cloudy.28 mph71%30.18 "Hg5 mi
4:15 AM45 °FSprinkles. Mostly cloudy.29 mph81%30.21 "Hg5 mi
3:45 AM48 °FPassing clouds.26 mph71%30.18 "Hg5 mi
3:15 AM46 °FSprinkles. Partly cloudy.31 mph76%30.21 "Hg4 mi
2:45 AM45 °FSprinkles. Partly cloudy.29 mph81%30.18 "Hg2 mi
2:15 AM46 °FPassing clouds.33 mph71%30.18 "Hg4 mi
1:45 AM46 °FSprinkles. Partly cloudy.31 mph76%30.18 "Hg4 mi
1:15 AM46 °FPassing clouds.35 mph76%30.15 "Hg4 mi
12:45 AM46 °FSprinkles. Passing clouds.37 mph76%30.15 "Hg4 mi
12:15 AM48 °FPassing clouds.37 mph58%30.15 "Hg5 mi
11:45 PM
Wed, Jul 29
48 °FSprinkles. Partly cloudy.33 mph66%30.15 "Hg4 mi
11:15 PM46 °FMostly cloudy.30 mph76%30.15 "HgN/A
10:45 PM46 °FSprinkles. Passing clouds.35 mph76%30.12 "Hg3 mi
10:15 PM46 °FRain showers. Passing clouds.38 mph76%30.12 "Hg3 mi
9:45 PM48 °FPartly cloudy.35 mph76%30.09 "HgN/A
9:15 PM48 °FPartly cloudy.33 mph76%30.09 "Hg5 mi
8:15 PM50 °FPartly cloudy.35 mph67%30.07 "HgN/A
7:45 PM48 °FPartly cloudy.33 mph71%30.04 "Hg6 mi
7:15 PM50 °FMostly cloudy.32 mph67%30.01 "HgN/A
6:45 PM50 °FPartly cloudy.30 mph67%30.01 "HgN/A
6:15 PM50 °FPartly cloudy.29 mph71%29.98 "HgN/A
5:45 PM50 °FPassing clouds.28 mph76%29.95 "HgN/A
5:15 PM52 °FPassing clouds.28 mph67%29.95 "HgN/A
Weather by CustomWeather, © 2015

See weather overviewHow to use our weather pages